Flag for USA Past Weather in Avalon (Santa Catalina Island), California, USA — Yesterday and Last 2 Weeks

Now
77 °F

Sunny.


Feels Like: 79 °F
Forecast: 64 / 78 °F
Wind: No wind

Location: Catalina Airport

Current Time: Jul 24, 2016 at 7:30:08 PM

Latest Report: Jul 24, 2016 at 6:51 PM


Visibility: 10 mi

Pressure: 29.85 "Hg

Humidity: 54%

Dew Point: 59 °F

Location of Avalon (Santa Catalina Island)Location

Past Weather in Avalon (Santa Catalina Island) — Graph

°F

Avalon (Santa Catalina Island) Temperature Yesterday

Maximum temperature yesterday: 92 °F (at 12:51 PM)
Minimum temperature yesterday: 72 °F (at 7:51 PM)
Average temperature yesterday: 80 °F

High & Low Weather Summary for the Past Weeks

 TemperatureHumidityPressure
High95 °F (Jul 22, 12:51 PM)100% (Jul 11, 9:04 PM)30.05 "Hg (Jul 11, 9:04 PM)
Low55 °F (Jul 17, 12:51 AM)13% (Jul 22, 12:51 PM)29.75 "Hg (Jul 23, 3:51 AM)
Average70 °F61%29.91 "Hg
* Reported Jul 9 5:51 PM — Jul 24 5:51 PM, Avalon (Santa Catalina Island), Weather by CustomWeather, © 2016

Note: Actual official high and low records may vary slightly from our data, if they occured in-between our weather recording intervals... More about our weather records

Advertising

Avalon (Santa Catalina Island) Weather History for the Previous 24 Hours

Scroll right to see more
 ConditionsComfort  
Time TempWeatherWind HumidityBarometerVisibility
5:51 PM
Sun, Jul 24
78 °FSunny.3 mph60%29.85 "Hg10 mi
4:51 PM79 °FSunny.5 mph56%29.85 "Hg10 mi
3:51 PM79 °FSunny.6 mph58%29.86 "Hg10 mi
2:51 PM76 °FSunny.5 mph62%29.88 "Hg10 mi
1:51 PM82 °FSunny.6 mph37%29.89 "Hg10 mi
12:51 PM84 °FSunny.7 mph36%29.89 "Hg10 mi
11:51 AM78 °FSunny.10 mph52%29.89 "Hg10 mi
10:51 AM78 °FSunny.7 mph46%29.88 "Hg10 mi
9:51 AM78 °FSunny.15 mph43%29.86 "Hg10 mi
8:51 AM78 °FSunny.16 mph37%29.85 "Hg10 mi
7:51 AM76 °FSunny.13 mph40%29.83 "Hg10 mi
6:51 AM75 °FClear.16 mph32%29.81 "Hg10 mi
5:51 AM73 °FClear.9 mph33%29.80 "Hg10 mi
4:51 AM73 °FClear.3 mph30%29.78 "Hg10 mi
3:51 AM75 °FClear.8 mph27%29.76 "Hg10 mi
2:51 AM72 °FClear.9 mph35%29.76 "Hg10 mi
1:51 AM72 °FClear.8 mph35%29.77 "Hg10 mi
12:51 AM71 °FClear.8 mph36%29.77 "Hg10 mi
11:51 PM
Sat, Jul 23
76 °FClear.7 mph26%29.77 "Hg10 mi
10:51 PM77 °FClear.8 mph26%29.78 "Hg10 mi
9:51 PM76 °FClear.7 mph30%29.78 "Hg10 mi
8:51 PM73 °FSunny.5 mph43%29.78 "Hg10 mi
7:51 PM72 °FSunny.6 mph57%29.76 "Hg10 mi
Weather by CustomWeather, © 2016

See weather overviewHow to use our weather pages